This is the latest recevied weather packets stored in our database for station/object DL9BGG-13. If no packets are shown the sender has not sent any weather packets the latest 1 day(s).
| Time | Temp. | Humidity | Pressure | Rain* | Wind** | Luminosity | Snow |
|---|---|---|---|---|---|---|---|
| 1777977886 | 11.11° C | 74% | 1057.3 hPa | 0 mm | 3.58 m/s, 45° | - | - |
| 1777977805 | 11.11° C | 74% | 1057.3 hPa | 0 mm | 1.79 m/s, 22° | - | - |
| 1777977723 | 11.67° C | 74% | 1057.4 hPa | 0 mm | 2.68 m/s, 22° | - | - |
| 1777977651 | 11.11° C | 75% | 1057.4 hPa | 0 mm | 3.58 m/s, 22° | - | - |
| 1777977578 | 11.11° C | 75% | 1057.4 hPa | 0 mm | 3.58 m/s, 67° | - | - |
| 1777977512 | 11.11° C | 74% | 1057.4 hPa | 0 mm | 4.47 m/s, 45° | - | - |
| 1777977439 | 11.11° C | 75% | 1057.4 hPa | 0 mm | 1.79 m/s, 112° | - | - |
| 1777977374 | 11.11° C | 75% | 1057.4 hPa | 0 mm | 4.02 m/s, 22° | - | - |
| 1777977294 | 11.11° C | 75% | 1057.4 hPa | 0 mm | 2.68 m/s, 67° | - | - |
| 1777977220 | 11.11° C | 75% | 1057.4 hPa | 0 mm | 3.58 m/s, 45° | - | - |
| 1777977155 | 11.11° C | 75% | 1057.4 hPa | 0 mm | 3.58 m/s, 337° | - | - |
| 1777977082 | 11.11° C | 75% | 1057.4 hPa | 0 mm | 4.02 m/s, 90° | - | - |
| 1777977009 | 11.11° C | 74% | 1057.3 hPa | 0 mm | 4.02 m/s, 45° | - | - |
| 1777976936 | 11.11° C | 74% | 1057.3 hPa | 0 mm | 5.36 m/s, 67° | - | - |
| 1777976870 | 11.11° C | 74% | 1057.4 hPa | 0 mm | 4.92 m/s, 22° | - | - |
| 1777976798 | 11.11° C | 73% | 1057.2 hPa | 0 mm | 3.13 m/s, 45° | - | - |
| 1777976733 | 11.11° C | 74% | 1057.3 hPa | 0 mm | 2.68 m/s, 45° | - | - |
| 1777976668 | 11.11° C | 74% | 1057.4 hPa | 0 mm | 4.02 m/s, 45° | - | - |
| 1777976602 | 11.11° C | 74% | 1057.3 hPa | 0 mm | 4.92 m/s, 22° | - | - |
| 1777976513 | 11.11° C | 74% | 1057.3 hPa | 0 mm | 1.34 m/s, 22° | - | - |
| 1777976440 | 11.11° C | 74% | 1057.5 hPa | 0 mm | 1.79 m/s, 22° | - | - |
| 1777976366 | 11.11° C | 73% | 1057.4 hPa | 0 mm | 3.13 m/s, 45° | - | - |
| 1777976287 | 11.11° C | 73% | 1057.4 hPa | 0 mm | 5.36 m/s, 22° | - | - |
| 1777976221 | 11.11° C | 73% | 1057.5 hPa | 0 mm | 2.68 m/s, 22° | - | - |
| 1777976148 | 11.11° C | 73% | 1057.4 hPa | 0 mm | 2.68 m/s, 22° | - | - |
* Rain latest hour (hover to see other rain measurements)
** Current wind speed in m/s (hover to see current wind gust speed)